Gallup, NM

10:56 PM MDT on August 29, 2016 (GMT -0600)
Gallup Municipal

Weather History for KGUP - February, 2013

Change the Weather History Date:

Monday, February 25, 2013

  Actual Average Record
Temperature  
Mean Temperature 32 °F -  
Max Temperature 50 °F 45 °F 73 °F (1986)
Min Temperature 15 °F 17 °F 6 °F (1974)
Degree Days  
Heating Degree Days 32    
Moisture  
Dew Point 10 °F    
Average Humidity 45    
Maximum Humidity 71    
Minimum Humidity 16    
Precipitation  
Precipitation 0.00 in - - ()
Sea Level Pressure  
Sea Level Pressure 30.09 in    
Wind  
Wind Speed 3 mph (WSW)    
Max Wind Speed 20 mph    
Max Gust Speed 24 mph    
Visibility 10 miles    
Events      
Averages and records for this station are not official NWS values.
T = Trace of Precipitation, MM = Missing Value Source: NWS Daily Summary

Daily Weather History Graph

Daily Weather History Graph

Search for Another Location

Airport or City:

Trip Planner

Search our weather history database for the weather conditions in past years. The results will help you decide how hot, cold, wet, or windy it might be!

Date:

Astronomy

Feb. 25, 2013 Rise Set
Actual Time 6:49 AM MST 6:07 PM MST
Civil Twilight 6:23 AM MST 6:32 PM MST
Nautical Twilight 5:54 AM MST 7:02 PM MST
Astronomical Twilight 5:24 AM MST 7:31 PM MST
Moon 6:21 PM MST (2/25) 6:23 AM MST (2/25)
Length of Visible Light 12h 08m
Length of Day
11h 17m
Full, 100% of the Moon is Illuminated
Feb 25
Full
Feb 25
Full
Mar 4
Last Quarter
Mar 11
New
Mar 19
First Quarter

Hourly Weather History & Observations

Time (MST) Temp. Windchill Dew Point Humidity Pressure Visibility Wind Dir Wind Speed Gust Speed Precip Events Conditions
12:53 AM 23.0 °F - 12.0 °F 63% 30.06 in 10.0 mi Calm Calm - N/A   Clear
1:53 AM 18.0 °F - 9.0 °F 68% 30.10 in 10.0 mi Calm Calm - N/A   Clear
2:53 AM 18.0 °F - 10.0 °F 71% 30.11 in 10.0 mi Calm Calm - N/A   Clear
3:53 AM 17.1 °F 11.7 °F 9.0 °F 71% 30.15 in 10.0 mi ENE 3.5 mph - N/A   Clear
4:53 AM 18.0 °F - 9.0 °F 68% 30.17 in 10.0 mi Calm Calm - N/A   Clear
5:53 AM 15.1 °F - 7.0 °F 70% 30.23 in 10.0 mi Calm Calm - N/A   Clear
6:53 AM 15.1 °F 9.4 °F 7.0 °F 70% 30.27 in 10.0 mi ENE 3.5 mph - N/A   Clear
7:53 AM 21.0 °F - 10.9 °F 65% 30.26 in 10.0 mi Calm Calm - N/A   Clear
8:53 AM 28.0 °F 22.8 °F 14.0 °F 56% 30.24 in 10.0 mi WSW 4.6 mph - N/A   Clear
9:53 AM 33.1 °F 30.0 °F 12.9 °F 43% 30.20 in 10.0 mi Variable 3.5 mph - N/A   Clear
11:53 AM 42.1 °F 37.1 °F 12.0 °F 29% 30.11 in 10.0 mi SW 8.1 mph - N/A   Clear
12:53 PM 45.0 °F 42.6 °F 10.0 °F 24% 30.04 in 10.0 mi Variable 4.6 mph - N/A   Clear
1:53 PM 46.9 °F - 12.9 °F 25% 30.03 in 10.0 mi SW 15.0 mph 21.9 mph N/A   Clear
2:53 PM 48.9 °F - 14.0 °F 25% 30.00 in 10.0 mi SW 12.7 mph - N/A   Clear
3:53 PM 50.0 °F - 12.0 °F 22% 29.99 in 10.0 mi SW 6.9 mph - N/A   Clear
4:20 PM 50.0 °F - 5.0 °F 16% 29.99 in 10.0 mi West 19.6 mph 24.2 mph N/A   Clear
4:53 PM 48.0 °F - 3.0 °F 16% 30.00 in 10.0 mi West 13.8 mph - N/A   Clear
5:53 PM 45.0 °F 41.8 °F 6.1 °F 20% 30.05 in 10.0 mi WNW 5.8 mph - N/A   Clear
6:53 PM 39.0 °F 32.3 °F 12.9 °F 34% 30.11 in 10.0 mi WSW 10.4 mph - N/A   Clear
7:53 PM 33.1 °F 30.0 °F 12.0 °F 42% 30.12 in 10.0 mi West 3.5 mph - N/A   Clear
8:53 PM 33.1 °F 28.7 °F 10.9 °F 40% 30.05 in 10.0 mi SW 4.6 mph - N/A   Clear
9:53 PM 33.1 °F - 10.9 °F 40% 30.01 in 10.0 mi Calm Calm - N/A   Clear
10:53 PM 28.0 °F - 10.0 °F 47% 30.00 in 10.0 mi Calm Calm - N/A   Clear
11:53 PM 27.0 °F - 9.0 °F 47% 29.96 in 10.0 mi Calm Calm - N/A   Clear